Donnes mto: Actuelle jeudi, 18/10/2018 23:50
Date Horaire Temp. E. Hum. E. P.atmo. Pluie Vent Direction Direction Ensoleilleme Ev.Tr. UV Solaire P. de rose Temp au vent Rafales
18/10/2018 23:50 13,1 C 80 % 1015,9 hPa 0,0 mm 0,0 km/h (0 Bft) N-NE 22 0 min 0,000 mm 0,0 UV-I 0 W/m 9,7 C 13,1 C 0,0 km/h (0 Bft)
18/10/2018 23:45 13,3 C 80 % 1015,9 hPa 0,0 mm 0,0 km/h (0 Bft) N-NE 23 0 min 0,000 mm 0,0 UV-I 0 W/m 9,9 C 13,3 C 0,0 km/h (0 Bft)
18/10/2018 23:40 13,4 C 79 % 1015,8 hPa 0,0 mm 0,0 km/h (0 Bft) N-NE 23 0 min 0,000 mm 0,0 UV-I 0 W/m 9,8 C 13,4 C 0,0 km/h (0 Bft)
18/10/2018 23:35 13,4 C 79 % 1015,9 hPa 0,0 mm 0,0 km/h (0 Bft) N-NE 23 0 min 0,000 mm 0,0 UV-I 0 W/m 9,8 C 13,4 C 0,0 km/h (0 Bft)
18/10/2018 23:30 13,6 C 78 % 1015,9 hPa 0,0 mm 0,0 km/h (0 Bft) N-NE 23 0 min 0,000 mm 0,0 UV-I 0 W/m 9,8 C 13,6 C 0,0 km/h (0 Bft)
18/10/2018 23:25 13,7 C 78 % 1015,9 hPa 0,0 mm 0,0 km/h (0 Bft) N-NE 22 0 min 0,000 mm 0,0 UV-I 0 W/m 9,9 C 13,7 C 0,0 km/h (0 Bft)
18/10/2018 23:20 13,7 C 78 % 1015,9 hPa 0,0 mm 0,0 km/h (0 Bft) N-NE 22 0 min 0,000 mm 0,0 UV-I 0 W/m 9,9 C 13,7 C 1,6 km/h (1 Bft)
18/10/2018 23:15 13,8 C 78 % 1015,9 hPa 0,0 mm 0,0 km/h (0 Bft) N-NE 22 0 min 0,000 mm 0,0 UV-I 0 W/m 10,0 C 13,8 C 1,6 km/h (1 Bft)
18/10/2018 23:10 13,9 C 79 % 1015,9 hPa 0,0 mm 0,0 km/h (0 Bft) N-NE 23 0 min 0,000 mm 0,0 UV-I 0 W/m 10,3 C 13,9 C 0,0 km/h (0 Bft)
18/10/2018 23:05 13,9 C 78 % 1015,9 hPa 0,0 mm 0,0 km/h (0 Bft) N-NE 23 0 min 0,026 mm 0,0 UV-I 0 W/m 10,1 C 13,9 C 0,0 km/h (0 Bft)
18/10/2018 23:00 13,9 C 78 % 1016,0 hPa 0,0 mm 0,0 km/h (0 Bft) N-NE 23 0 min 0,000 mm 0,0 UV-I 0 W/m 10,1 C 13,9 C 1,6 km/h (1 Bft)
18/10/2018 22:55 14,0 C 78 % 1016,0 hPa 0,0 mm 0,1 km/h (0 Bft) N-NE 23 0 min 0,000 mm 0,0 UV-I 0 W/m 10,2 C 14,0 C 1,6 km/h (1 Bft)
18/10/2018 22:50 14,1 C 78 % 1015,9 hPa 0,0 mm 0,0 km/h (0 Bft) N-NE 23 0 min 0,000 mm 0,0 UV-I 0 W/m 10,3 C 14,1 C 0,0 km/h (0 Bft)
18/10/2018 22:45 14,2 C 78 % 1015,8 hPa 0,0 mm 0,0 km/h (0 Bft) N-NE 23 0 min 0,000 mm 0,0 UV-I 0 W/m 10,4 C 14,2 C 0,0 km/h (0 Bft)
18/10/2018 22:40 14,3 C 78 % 1015,8 hPa 0,0 mm 0,0 km/h (0 Bft) N-NE 23 0 min 0,000 mm 0,0 UV-I 0 W/m 10,5 C 14,3 C 1,6 km/h (1 Bft)
18/10/2018 22:35 14,3 C 78 % 1015,8 hPa 0,0 mm 0,0 km/h (0 Bft) N-NE 22 0 min 0,000 mm 0,0 UV-I 0 W/m 10,5 C 14,3 C 1,6 km/h (1 Bft)
18/10/2018 22:30 14,4 C 77 % 1015,8 hPa 0,0 mm 0,0 km/h (0 Bft) N-NE 23 0 min 0,000 mm 0,0 UV-I 0 W/m 10,4 C 14,4 C 0,0 km/h (0 Bft)
18/10/2018 22:25 14,6 C 78 % 1015,8 hPa 0,0 mm 0,0 km/h (0 Bft) N-NE 23 0 min 0,000 mm 0,0 UV-I 0 W/m 10,8 C 14,6 C 1,6 km/h (1 Bft)
18/10/2018 22:20 14,7 C 78 % 1015,8 hPa 0,0 mm 0,0 km/h (0 Bft) N-NE 23 0 min 0,000 mm 0,0 UV-I 0 W/m 10,9 C 14,7 C 0,0 km/h (0 Bft)
18/10/2018 22:15 14,7 C 78 % 1015,6 hPa 0,0 mm 0,0 km/h (0 Bft) N-NE 22 0 min 0,000 mm 0,0 UV-I 0 W/m 10,9 C 14,7 C 0,0 km/h (0 Bft)
18/10/2018 22:10 14,8 C 78 % 1015,6 hPa 0,0 mm 0,0 km/h (0 Bft) N-NE 23 0 min 0,000 mm 0,0 UV-I 0 W/m 11,0 C 14,8 C 0,0 km/h (0 Bft)
18/10/2018 22:05 14,9 C 78 % 1015,6 hPa 0,0 mm 0,0 km/h (0 Bft) N-NE 22 0 min 0,025 mm 0,0 UV-I 0 W/m 11,1 C 14,9 C 1,6 km/h (1 Bft)
18/10/2018 22:00 15,1 C 77 % 1015,6 hPa 0,0 mm 0,0 km/h (0 Bft) N-NE 23 0 min 0,000 mm 0,0 UV-I 0 W/m 11,1 C 15,1 C 0,0 km/h (0 Bft)
18/10/2018 21:55 15,2 C 77 % 1015,6 hPa 0,0 mm 0,0 km/h (0 Bft) N-NE 23 0 min 0,000 mm 0,0 UV-I 0 W/m 11,2 C 15,2 C 0,0 km/h (0 Bft)
18/10/2018 21:50 15,3 C 77 % 1015,6 hPa 0,0 mm 0,0 km/h (0 Bft) N-NE 23 0 min 0,000 mm 0,0 UV-I 0 W/m 11,3 C 15,3 C 0,0 km/h (0 Bft)
18/10/2018 21:45 15,4 C 77 % 1015,5 hPa 0,0 mm 0,0 km/h (0 Bft) N-NE 23 0 min 0,000 mm 0,0 UV-I 0 W/m 11,4 C 15,4 C 0,0 km/h (0 Bft)
18/10/2018 21:40 15,5 C 76 % 1015,4 hPa 0,0 mm 0,0 km/h (0 Bft) N-NE 22 0 min 0,000 mm 0,0 UV-I 0 W/m 11,3 C 15,5 C 0,0 km/h (0 Bft)
18/10/2018 21:35 15,6 C 76 % 1015,4 hPa 0,0 mm 0,0 km/h (0 Bft) N-NE 22 0 min 0,000 mm 0,0 UV-I 0 W/m 11,4 C 15,6 C 0,0 km/h (0 Bft)
18/10/2018 21:30 15,8 C 76 % 1015,3 hPa 0,0 mm 0,0 km/h (0 Bft) N-NE 23 0 min 0,000 mm 0,0 UV-I 0 W/m 11,6 C 15,8 C 1,6 km/h (1 Bft)
18/10/2018 21:25 15,9 C 75 % 1015,3 hPa 0,0 mm 0,0 km/h (0 Bft) N-NE 15 0 min 0,000 mm 0,0 UV-I 0 W/m 11,5 C 15,9 C 0,0 km/h (0 Bft)
18/10/2018 21:20 16,1 C 75 % 1015,3 hPa 0,0 mm 0,0 km/h (0 Bft) N-NE 15 0 min 0,000 mm 0,0 UV-I 0 W/m 11,7 C 16,1 C 0,0 km/h (0 Bft)
18/10/2018 21:15 16,3 C 73 % 1015,4 hPa 0,0 mm 0,0 km/h (0 Bft) N-NE 15 0 min 0,000 mm 0,0 UV-I 0 W/m 11,4 C 16,3 C 0,0 km/h (0 Bft)
18/10/2018 21:10 16,7 C 73 % 1015,4 hPa 0,0 mm 0,0 km/h (0 Bft) N-NE 15 0 min 0,000 mm 0,0 UV-I 0 W/m 11,8 C 16,7 C 0,0 km/h (0 Bft)
18/10/2018 21:05 17,2 C 71 % 1015,4 hPa 0,0 mm 0,0 km/h (0 Bft) N-NE 15 0 min 0,026 mm 0,0 UV-I 0 W/m 11,9 C 17,2 C 1,6 km/h (1 Bft)
18/10/2018 21:00 17,3 C 69 % 1015,4 hPa 0,0 mm 0,1 km/h (0 Bft) N-NE 14 0 min 0,000 mm 0,0 UV-I 0 W/m 11,6 C 17,3 C 1,6 km/h (1 Bft)
18/10/2018 20:55 17,5 C 69 % 1015,3 hPa 0,0 mm 0,4 km/h (0 Bft) N 5 0 min 0,000 mm 0,0 UV-I 0 W/m 11,7 C 17,5 C 1,6 km/h (1 Bft)
18/10/2018 20:50 17,7 C 68 % 1015,3 hPa 0,0 mm 0,2 km/h (0 Bft) N 5 0 min 0,000 mm 0,0 UV-I 0 W/m 11,7 C 17,7 C 3,2 km/h (1 Bft)
18/10/2018 20:45 17,8 C 68 % 1015,3 hPa 0,0 mm 0,2 km/h (0 Bft) N-NE 25 0 min 0,000 mm 0,0 UV-I 0 W/m 11,8 C 17,8 C 1,6 km/h (1 Bft)
18/10/2018 20:40 17,7 C 68 % 1015,2 hPa 0,0 mm 0,8 km/h (0 Bft) N 5 0 min 0,000 mm 0,0 UV-I 0 W/m 11,7 C 17,7 C 3,2 km/h (1 Bft)
18/10/2018 20:35 17,6 C 69 % 1015,2 hPa 0,0 mm 0,9 km/h (0 Bft) NE 39 0 min 0,000 mm 0,0 UV-I 0 W/m 11,8 C 17,6 C 4,8 km/h (1 Bft)
18/10/2018 20:30 17,4 C 70 % 1015,2 hPa 0,0 mm 1,6 km/h (1 Bft) NE 34 0 min 0,000 mm 0,0 UV-I 0 W/m 11,9 C 17,4 C 3,2 km/h (1 Bft)
18/10/2018 20:25 17,4 C 71 % 1015,3 hPa 0,0 mm 0,4 km/h (0 Bft) NE 40 0 min 0,000 mm 0,0 UV-I 0 W/m 12,1 C 17,4 C 3,2 km/h (1 Bft)
18/10/2018 20:20 17,5 C 70 % 1015,3 hPa 0,0 mm 1,0 km/h (0 Bft) N-NE 31 0 min 0,000 mm 0,0 UV-I 0 W/m 12,0 C 17,5 C 3,2 km/h (1 Bft)
18/10/2018 20:15 17,7 C 71 % 1015,1 hPa 0,0 mm 0,9 km/h (0 Bft) NE 50 0 min 0,000 mm 0,0 UV-I 0 W/m 12,4 C 17,7 C 3,2 km/h (1 Bft)
18/10/2018 20:10 17,7 C 71 % 1015,0 hPa 0,0 mm 0,3 km/h (0 Bft) N-NO 346 0 min 0,000 mm 0,0 UV-I 0 W/m 12,4 C 17,7 C 1,6 km/h (1 Bft)
18/10/2018 20:05 17,8 C 70 % 1015,0 hPa 0,0 mm 0,0 km/h (0 Bft) N-NE 19 0 min 0,000 mm 0,0 UV-I 0 W/m 12,3 C 17,8 C 1,6 km/h (1 Bft)
18/10/2018 20:00 17,9 C 69 % 1014,9 hPa 0,0 mm 0,1 km/h (0 Bft) N-NE 19 0 min 0,000 mm 0,0 UV-I 0 W/m 12,1 C 17,9 C 1,6 km/h (1 Bft)
18/10/2018 19:55 18,0 C 69 % 1015,0 hPa 0,0 mm 0,1 km/h (0 Bft) N-NE 19 0 min 0,000 mm 0,0 UV-I 0 W/m 12,2 C 18,0 C 1,6 km/h (1 Bft)
18/10/2018 19:50 18,1 C 69 % 1014,8 hPa 0,0 mm 0,3 km/h (0 Bft) N-NE 18 0 min 0,000 mm 0,0 UV-I 0 W/m 12,3 C 18,1 C 1,6 km/h (1 Bft)
18/10/2018 19:45 18,2 C 68 % 1014,7 hPa 0,0 mm 0,4 km/h (0 Bft) N-NE 24 0 min 0,000 mm 0,0 UV-I 0 W/m 12,2 C 18,2 C 3,2 km/h (1 Bft)
18/10/2018 19:40 18,3 C 68 % 1014,6 hPa 0,0 mm 0,1 km/h (0 Bft) N-NE 16 0 min 0,000 mm 0,0 UV-I 0 W/m 12,3 C 18,3 C 1,6 km/h (1 Bft)
18/10/2018 19:35 18,3 C 67 % 1014,5 hPa 0,0 mm 0,1 km/h (0 Bft) N-NE 16 0 min 0,000 mm 0,0 UV-I 0 W/m 12,1 C 18,3 C 1,6 km/h (1 Bft)
18/10/2018 19:30 18,3 C 68 % 1014,5 hPa 0,0 mm 0,2 km/h (0 Bft) N-NE 15 0 min 0,000 mm 0,0 UV-I 0 W/m 12,3 C 18,3 C 1,6 km/h (1 Bft)
18/10/2018 19:25 18,3 C 68 % 1014,5 hPa 0,0 mm 0,6 km/h (0 Bft) N-NE 15 0 min 0,000 mm 0,0 UV-I 0 W/m 12,3 C 18,3 C 3,2 km/h (1 Bft)
18/10/2018 19:20 18,5 C 67 % 1014,5 hPa 0,0 mm 0,5 km/h (0 Bft) NE 44 0 min 0,000 mm 0,0 UV-I 0 W/m 12,3 C 18,5 C 1,6 km/h (1 Bft)
18/10/2018 19:15 19,2 C 65 % 1014,4 hPa 0,0 mm 0,1 km/h (0 Bft) O-NO 283 0 min 0,000 mm 0,0 UV-I 0 W/m 12,5 C 19,2 C 1,6 km/h (1 Bft)
18/10/2018 19:10 19,7 C 63 % 1014,3 hPa 0,0 mm 0,0 km/h (0 Bft) O-NO 284 0 min 0,000 mm 0,0 UV-I 0 W/m 12,5 C 19,7 C 0,0 km/h (0 Bft)
18/10/2018 19:05 19,8 C 63 % 1014,3 hPa 0,0 mm 0,2 km/h (0 Bft) O-NO 284 0 min 0,025 mm 0,0 UV-I 1 W/m 12,5 C 19,8 C 1,6 km/h (1 Bft)
18/10/2018 19:00 19,9 C 62 % 1014,4 hPa 0,0 mm 0,1 km/h (0 Bft) O-NO 284 0 min 0,000 mm 0,0 UV-I 6 W/m 12,4 C 19,9 C 1,6 km/h (1 Bft)
18/10/2018 18:55 20,1 C 61 % 1014,4 hPa 0,0 mm 0,0 km/h (0 Bft) O-NO 283 0 min 0,000 mm 0,0 UV-I 10 W/m 12,3 C 20,1 C 0,0 km/h (0 Bft)
18/10/2018 18:50 20,3 C 60 % 1014,3 hPa 0,0 mm 0,2 km/h (0 Bft) O-NO 283 0 min 0,000 mm 0,0 UV-I 14 W/m 12,3 C 20,3 C 1,6 km/h (1 Bft)
18/10/2018 18:45 20,6 C 59 % 1014,2 hPa 0,0 mm 0,0 km/h (0 Bft) SO 223 0 min 0,000 mm 0,0 UV-I 19 W/m 12,3 C 20,6 C 0,0 km/h (0 Bft)
18/10/2018 18:40 20,7 C 58 % 1014,1 hPa 0,0 mm 0,0 km/h (0 Bft) SO 223 0 min 0,000 mm 0,0 UV-I 21 W/m 12,1 C 20,7 C 0,0 km/h (0 Bft)
18/10/2018 18:35 20,9 C 57 % 1014,1 hPa 0,0 mm 0,0 km/h (0 Bft) SO 223 0 min 0,000 mm 0,0 UV-I 25 W/m 12,1 C 20,9 C 1,6 km/h (1 Bft)
18/10/2018 18:30 21,1 C 56 % 1014,1 hPa 0,0 mm 0,2 km/h (0 Bft) SO 223 0 min 0,000 mm 0,0 UV-I 27 W/m 12,0 C 21,1 C 1,6 km/h (1 Bft)
18/10/2018 18:25 21,3 C 55 % 1014,2 hPa 0,0 mm 0,6 km/h (0 Bft) SO 223 0 min 0,000 mm 0,0 UV-I 31 W/m 11,9 C 21,3 C 3,2 km/h (1 Bft)
18/10/2018 18:20 21,6 C 54 % 1014,2 hPa 0,0 mm 0,4 km/h (0 Bft) E-SE 116 0 min 0,000 mm 0,0 UV-I 36 W/m 11,9 C 21,6 C 1,6 km/h (1 Bft)
18/10/2018 18:15 21,8 C 52 % 1014,1 hPa 0,0 mm 0,0 km/h (0 Bft) E-SE 115 0 min 0,000 mm 0,0 UV-I 43 W/m 11,5 C 21,8 C 0,0 km/h (0 Bft)
18/10/2018 18:10 22,1 C 54 % 1014,0 hPa 0,0 mm 0,0 km/h (0 Bft) E-SE 115 0 min 0,000 mm 0,0 UV-I 44 W/m 12,3 C 22,1 C 0,0 km/h (0 Bft)
18/10/2018 18:05 22,3 C 53 % 1014,0 hPa 0,0 mm 0,0 km/h (0 Bft) E-SE 116 0 min 0,102 mm 0,0 UV-I 49 W/m 12,2 C 22,3 C 0,0 km/h (0 Bft)
18/10/2018 18:00 22,4 C 49 % 1014,0 hPa 0,0 mm 0,0 km/h (0 Bft) E-SE 115 0 min 0,000 mm 0,0 UV-I 53 W/m 11,2 C 22,4 C 0,0 km/h (0 Bft)
18/10/2018 17:55 22,6 C 48 % 1014,0 hPa 0,0 mm 0,1 km/h (0 Bft) E-SE 116 0 min 0,000 mm 0,0 UV-I 70 W/m 11,0 C 22,6 C 1,6 km/h (1 Bft)
18/10/2018 17:50 22,7 C 48 % 1014,0 hPa 0,0 mm 0,2 km/h (0 Bft) E-SE 116 5 min 0,000 mm 0,0 UV-I 121 W/m 11,1 C 22,7 C 1,6 km/h (1 Bft)
18/10/2018 17:45 22,8 C 47 % 1014,0 hPa 0,0 mm 0,0 km/h (0 Bft) E-NE 59 5 min 0,000 mm 0,0 UV-I 140 W/m 10,9 C 22,8 C 1,6 km/h (1 Bft)
18/10/2018 17:40 22,9 C 45 % 1013,9 hPa 0,0 mm 0,0 km/h (0 Bft) E-NE 59 5 min 0,000 mm 0,0 UV-I 143 W/m 10,3 C 22,9 C 0,0 km/h (0 Bft)
18/10/2018 17:35 23,0 C 46 % 1014,0 hPa 0,0 mm 0,0 km/h (0 Bft) E-NE 59 5 min 0,000 mm 0,0 UV-I 145 W/m 10,7 C 23,0 C 0,0 km/h (0 Bft)
18/10/2018 17:30 23,0 C 48 % 1014,0 hPa 0,0 mm 0,0 km/h (0 Bft) E-NE 59 5 min 0,000 mm 0,0 UV-I 195 W/m 11,4 C 23,0 C 1,6 km/h (1 Bft)
18/10/2018 17:25 23,2 C 50 % 1014,0 hPa 0,0 mm 0,1 km/h (0 Bft) E-NE 59 5 min 0,000 mm 0,0 UV-I 224 W/m 12,2 C 23,2 C 1,6 km/h (1 Bft)
18/10/2018 17:20 23,3 C 48 % 1014,0 hPa 0,0 mm 0,2 km/h (0 Bft) E-NE 59 5 min 0,000 mm 0,0 UV-I 248 W/m 11,7 C 23,3 C 1,6 km/h (1 Bft)
18/10/2018 17:15 23,2 C 49 % 1014,0 hPa 0,0 mm 0,6 km/h (0 Bft) E-NE 60 5 min 0,000 mm 0,3 UV-I 246 W/m 11,9 C 23,2 C 3,2 km/h (1 Bft)
18/10/2018 17:10 23,0 C 51 % 1014,1 hPa 0,0 mm 0,2 km/h (0 Bft) N 5 5 min 0,000 mm 0,5 UV-I 230 W/m 12,3 C 23,0 C 1,6 km/h (1 Bft)
18/10/2018 17:05 23,0 C 49 % 1014,1 hPa 0,0 mm 0,3 km/h (0 Bft) N 5 5 min 0,177 mm 0,5 UV-I 231 W/m 11,7 C 23,0 C 1,6 km/h (1 Bft)
18/10/2018 17:00 23,1 C 49 % 1014,2 hPa 0,0 mm 0,6 km/h (0 Bft) N 360 0 min 0,000 mm 0,5 UV-I 159 W/m 11,8 C 23,1 C 3,2 km/h (1 Bft)
18/10/2018 16:55 23,3 C 47 % 1014,0 hPa 0,0 mm 0,2 km/h (0 Bft) N-NO 329 0 min 0,000 mm 0,5 UV-I 122 W/m 11,3 C 23,3 C 1,6 km/h (1 Bft)
18/10/2018 16:50 23,5 C 48 % 1014,2 hPa 0,0 mm 0,8 km/h (0 Bft) N 5 0 min 0,000 mm 0,5 UV-I 133 W/m 11,8 C 23,5 C 4,8 km/h (1 Bft)
18/10/2018 16:45 23,9 C 48 % 1014,1 hPa 0,0 mm 0,8 km/h (0 Bft) O 275 0 min 0,000 mm 0,6 UV-I 188 W/m 12,2 C 23,9 C 4,8 km/h (1 Bft)
18/10/2018 16:40 24,0 C 49 % 1014,1 hPa 0,0 mm 0,8 km/h (0 Bft) N-NO 334 5 min 0,000 mm 0,7 UV-I 288 W/m 12,6 C 24,0 C 4,8 km/h (1 Bft)
18/10/2018 16:35 24,1 C 48 % 1014,1 hPa 0,0 mm 0,8 km/h (0 Bft) N-NO 342 5 min 0,000 mm 0,8 UV-I 318 W/m 12,4 C 24,1 C 3,2 km/h (1 Bft)
18/10/2018 16:30 23,9 C 49 % 1014,1 hPa 0,0 mm 0,5 km/h (0 Bft) N-NE 23 5 min 0,000 mm 0,9 UV-I 350 W/m 12,5 C 23,9 C 3,2 km/h (1 Bft)
18/10/2018 16:25 23,9 C 49 % 1014,2 hPa 0,0 mm 1,0 km/h (0 Bft) NO 318 5 min 0,000 mm 0,9 UV-I 345 W/m 12,5 C 23,9 C 4,8 km/h (1 Bft)
18/10/2018 16:20 23,7 C 52 % 1014,3 hPa 0,0 mm 1,4 km/h (1 Bft) NO 326 5 min 0,000 mm 1,0 UV-I 376 W/m 13,2 C 23,7 C 4,8 km/h (1 Bft)
18/10/2018 16:15 23,8 C 51 % 1014,2 hPa 0,0 mm 1,6 km/h (1 Bft) N 5 5 min 0,000 mm 1,0 UV-I 353 W/m 13,0 C 23,8 C 4,8 km/h (1 Bft)
18/10/2018 16:10 23,9 C 49 % 1014,3 hPa 0,0 mm 1,3 km/h (1 Bft) O 269 5 min 0,000 mm 1,0 UV-I 366 W/m 12,5 C 23,9 C 6,4 km/h (2 Bft)
18/10/2018 16:05 23,5 C 52 % 1014,2 hPa 0,0 mm 0,8 km/h (0 Bft) O-NO 295 5 min 0,305 mm 1,1 UV-I 395 W/m 13,1 C 23,5 C 4,8 km/h (1 Bft)
18/10/2018 16:00 23,2 C 52 % 1014,3 hPa 0,0 mm 3,6 km/h (1 Bft) O 279 5 min 0,000 mm 1,1 UV-I 346 W/m 12,8 C 23,2 C 8,0 km/h (2 Bft)
18/10/2018 15:55 23,3 C 51 % 1014,3 hPa 0,0 mm 4,0 km/h (1 Bft) O 273 5 min 0,000 mm 1,3 UV-I 460 W/m 12,6 C 23,3 C 9,7 km/h (2 Bft)
18/10/2018 15:50 23,6 C 51 % 1014,3 hPa 0,0 mm 3,7 km/h (1 Bft) O-NO 295 5 min 0,000 mm 1,3 UV-I 465 W/m 12,9 C 23,6 C 6,4 km/h (2 Bft)
18/10/2018 15:45 23,7 C 50 % 1014,4 hPa 0,0 mm 1,2 km/h (1 Bft) O-NO 300 5 min 0,000 mm 1,2 UV-I 456 W/m 12,6 C 23,7 C 4,8 km/h (1 Bft)
18/10/2018 15:40 23,4 C 49 % 1014,3 hPa 0,0 mm 0,9 km/h (0 Bft) SO 233 5 min 0,000 mm 1,2 UV-I 484 W/m 12,1 C 23,4 C 3,2 km/h (1 Bft)
18/10/2018 15:35 23,5 C 50 % 1014,3 hPa 0,0 mm 1,8 km/h (1 Bft) O-SO 250 5 min 0,000 mm 1,3 UV-I 497 W/m 12,5 C 23,5 C 6,4 km/h (2 Bft)
18/10/2018 15:30 23,6 C 51 % 1014,4 hPa 0,0 mm 0,6 km/h (0 Bft) O-NO 284 5 min 0,000 mm 1,3 UV-I 474 W/m 12,9 C 23,6 C 4,8 km/h (1 Bft)
18/10/2018 15:25 23,1 C 53 % 1014,4 hPa 0,0 mm 1,0 km/h (0 Bft) NE 36 5 min 0,000 mm 1,3 UV-I 452 W/m 13,0 C 23,1 C 3,2 km/h (1 Bft)
18/10/2018 15:20 23,5 C 50 % 1014,4 hPa 0,0 mm 1,1 km/h (1 Bft) S-SE 149 5 min 0,000 mm 1,4 UV-I 496 W/m 12,5 C 23,5 C 3,2 km/h (1 Bft)
18/10/2018 15:15 23,5 C 51 % 1014,5 hPa 0,0 mm 1,1 km/h (1 Bft) NE 42 5 min 0,000 mm 1,7 UV-I 557 W/m 12,8 C 23,5 C 4,8 km/h (1 Bft)
18/10/2018 15:10 23,2 C 53 % 1014,4 hPa 0,0 mm 1,7 km/h (1 Bft) O-NO 302 5 min 0,000 mm 1,8 UV-I 578 W/m 13,1 C 23,2 C 4,8 km/h (1 Bft)
18/10/2018 15:05 23,1 C 55 % 1014,4 hPa 0,0 mm 1,4 km/h (1 Bft) N-NE 30 5 min 0,305 mm 1,8 UV-I 532 W/m 13,6 C 23,1 C 4,8 km/h (1 Bft)
18/10/2018 15:00 22,9 C 56 % 1014,5 hPa 0,0 mm 1,6 km/h (1 Bft) N-NE 22 5 min 0,000 mm 1,8 UV-I 536 W/m 13,6 C 22,9 C 6,4 km/h (2 Bft)
18/10/2018 14:55 22,7 C 54 % 1014,5 hPa 0,0 mm 0,7 km/h (0 Bft) O-SO 240 5 min 0,000 mm 1,8 UV-I 532 W/m 12,9 C 22,7 C 3,2 km/h (1 Bft)
18/10/2018 14:50 22,4 C 54 % 1014,6 hPa 0,0 mm 1,2 km/h (1 Bft) NO 322 5 min 0,000 mm 1,9 UV-I 535 W/m 12,6 C 22,4 C 4,8 km/h (1 Bft)
18/10/2018 14:45 22,4 C 55 % 1014,5 hPa 0,0 mm 0,6 km/h (0 Bft) E-NE 65 5 min 0,000 mm 1,8 UV-I 483 W/m 12,9 C 22,4 C 3,2 km/h (1 Bft)
18/10/2018 14:40 22,3 C 55 % 1014,6 hPa 0,0 mm 0,9 km/h (0 Bft) E-NE 76 5 min 0,000 mm 2,0 UV-I 547 W/m 12,8 C 22,3 C 3,2 km/h (1 Bft)
18/10/2018 14:35 22,4 C 55 % 1014,7 hPa 0,0 mm 1,4 km/h (1 Bft) N 10 5 min 0,000 mm 1,9 UV-I 497 W/m 12,9 C 22,4 C 4,8 km/h (1 Bft)
18/10/2018 14:30 22,3 C 55 % 1014,7 hPa 0,0 mm 0,6 km/h (0 Bft) SO 232 5 min 0,000 mm 2,0 UV-I 535 W/m 12,8 C 22,3 C 3,2 km/h (1 Bft)
18/10/2018 14:25 22,3 C 55 % 1014,7 hPa 0,0 mm 1,2 km/h (1 Bft) E-NE 69 5 min 0,000 mm 2,0 UV-I 530 W/m 12,8 C 22,3 C 6,4 km/h (2 Bft)
18/10/2018 14:20 22,4 C 57 % 1014,8 hPa 0,0 mm 2,0 km/h (1 Bft) N-NO 348 5 min 0,000 mm 2,0 UV-I 512 W/m 13,5 C 22,4 C 6,4 km/h (2 Bft)
18/10/2018 14:15 22,1 C 58 % 1014,7 hPa 0,0 mm 0,5 km/h (0 Bft) N-NO 342 5 min 0,000 mm 1,9 UV-I 432 W/m 13,4 C 22,1 C 3,2 km/h (1 Bft)
18/10/2018 14:10 21,7 C 58 % 1014,9 hPa 0,0 mm 0,3 km/h (0 Bft) O 279 5 min 0,000 mm 1,9 UV-I 486 W/m 13,1 C 21,7 C 3,2 km/h (1 Bft)
18/10/2018 14:05 21,2 C 60 % 1014,9 hPa 0,0 mm 2,3 km/h (1 Bft) O-NO 301 5 min 0,127 mm 2,1 UV-I 548 W/m 13,1 C 21,2 C 8,0 km/h (2 Bft)
18/10/2018 14:00 21,2 C 60 % 1015,0 hPa 0,0 mm 0,9 km/h (0 Bft) S-SE 150 5 min 0,000 mm 1,7 UV-I 373 W/m 13,1 C 21,2 C 3,2 km/h (1 Bft)
18/10/2018 13:55 21,3 C 60 % 1015,0 hPa 0,0 mm 1,4 km/h (1 Bft) O 260 0 min 0,000 mm 1,4 UV-I 174 W/m 13,2 C 21,3 C 3,2 km/h (1 Bft)
18/10/2018 13:50 21,0 C 61 % 1015,2 hPa 0,0 mm 2,6 km/h (1 Bft) O 281 0 min 0,000 mm 1,4 UV-I 160 W/m 13,2 C 21,0 C 8,0 km/h (2 Bft)
18/10/2018 13:45 20,9 C 61 % 1015,2 hPa 0,0 mm 1,0 km/h (0 Bft) N-NO 331 0 min 0,000 mm 1,3 UV-I 134 W/m 13,1 C 20,9 C 3,2 km/h (1 Bft)
18/10/2018 13:40 20,9 C 60 % 1015,2 hPa 0,0 mm 1,7 km/h (1 Bft) SO 229 0 min 0,000 mm 1,4 UV-I 137 W/m 12,8 C 20,9 C 4,8 km/h (1 Bft)
18/10/2018 13:35 20,8 C 60 % 1015,2 hPa 0,0 mm 0,7 km/h (0 Bft) NO 317 0 min 0,000 mm 1,3 UV-I 158 W/m 12,7 C 20,8 C 3,2 km/h (1 Bft)
18/10/2018 13:30 20,8 C 61 % 1015,2 hPa 0,0 mm 3,6 km/h (1 Bft) SO 236 0 min 0,000 mm 1,4 UV-I 179 W/m 13,0 C 20,8 C 6,4 km/h (2 Bft)
18/10/2018 13:25 20,8 C 60 % 1015,3 hPa 0,0 mm 2,7 km/h (1 Bft) SO 229 0 min 0,000 mm 1,4 UV-I 179 W/m 12,7 C 20,8 C 6,4 km/h (2 Bft)
18/10/2018 13:20 20,8 C 60 % 1015,3 hPa 0,0 mm 1,7 km/h (1 Bft) O 264 0 min 0,000 mm 1,3 UV-I 173 W/m 12,7 C 20,8 C 4,8 km/h (1 Bft)
18/10/2018 13:15 20,6 C 61 % 1015,3 hPa 0,0 mm 2,5 km/h (1 Bft) O-SO 254 0 min 0,000 mm 1,4 UV-I 160 W/m 12,8 C 20,6 C 8,0 km/h (2 Bft)
18/10/2018 13:10 20,6 C 60 % 1015,4 hPa 0,0 mm 1,6 km/h (1 Bft) O-SO 242 0 min 0,000 mm 1,4 UV-I 158 W/m 12,6 C 20,6 C 4,8 km/h (1 Bft)
18/10/2018 13:05 20,6 C 60 % 1015,5 hPa 0,0 mm 1,5 km/h (1 Bft) S 190 0 min 0,102 mm 1,4 UV-I 158 W/m 12,6 C 20,6 C 4,8 km/h (1 Bft)
18/10/2018 13:00 20,5 C 61 % 1015,5 hPa 0,0 mm 1,0 km/h (0 Bft) O-SO 257 0 min 0,000 mm 1,4 UV-I 156 W/m 12,7 C 20,5 C 4,8 km/h (1 Bft)
18/10/2018 12:55 20,2 C 62 % 1015,6 hPa 0,0 mm 1,0 km/h (0 Bft) NO 307 0 min 0,000 mm 1,4 UV-I 170 W/m 12,7 C 20,2 C 3,2 km/h (1 Bft)
18/10/2018 12:50 19,9 C 61 % 1015,6 hPa 0,0 mm 0,9 km/h (0 Bft) SO 229 0 min 0,000 mm 1,3 UV-I 155 W/m 12,2 C 19,9 C 3,2 km/h (1 Bft)
18/10/2018 12:45 19,8 C 61 % 1015,7 hPa 0,0 mm 2,8 km/h (1 Bft) O-SO 242 0 min 0,000 mm 1,3 UV-I 134 W/m 12,1 C 19,8 C 9,7 km/h (2 Bft)
18/10/2018 12:40 19,9 C 63 % 1015,7 hPa 0,0 mm 1,8 km/h (1 Bft) O-SO 242 0 min 0,000 mm 1,3 UV-I 130 W/m 12,6 C 19,9 C 6,4 km/h (2 Bft)
18/10/2018 12:35 19,7 C 64 % 1015,6 hPa 0,0 mm 0,1 km/h (0 Bft) S-SO 193 0 min 0,000 mm 1,3 UV-I 253 W/m 12,7 C 19,7 C 1,6 km/h (1 Bft)
18/10/2018 12:30 19,5 C 63 % 1015,8 hPa 0,0 mm 0,5 km/h (0 Bft) O 270 0 min 0,000 mm 1,2 UV-I 140 W/m 12,3 C 19,5 C 3,2 km/h (1 Bft)
18/10/2018 12:25 19,4 C 61 % 1015,7 hPa 0,0 mm 1,5 km/h (1 Bft) O 269 0 min 0,000 mm 1,3 UV-I 238 W/m 11,7 C 19,4 C 4,8 km/h (1 Bft)
18/10/2018 12:20 19,4 C 64 % 1015,7 hPa 0,0 mm 1,3 km/h (1 Bft) O-NO 292 0 min 0,000 mm 1,4 UV-I 252 W/m 12,4 C 19,4 C 4,8 km/h (1 Bft)
18/10/2018 12:15 19,4 C 65 % 1015,7 hPa 0,0 mm 1,2 km/h (1 Bft) O-SO 240 0 min 0,000 mm 1,1 UV-I 118 W/m 12,6 C 19,4 C 3,2 km/h (1 Bft)
18/10/2018 12:10 19,2 C 65 % 1015,7 hPa 0,0 mm 0,0 km/h (0 Bft) N-NO 342 0 min 0,000 mm 1,1 UV-I 95 W/m 12,5 C 19,2 C 1,6 km/h (1 Bft)
18/10/2018 12:05 19,2 C 65 % 1015,8 hPa 0,0 mm 0,3 km/h (0 Bft) N-NO 342 0 min 0,177 mm 1,0 UV-I 96 W/m 12,5 C 19,2 C 3,2 km/h (1 Bft)
18/10/2018 12:00 19,2 C 65 % 1015,7 hPa 0,0 mm 1,3 km/h (1 Bft) NE 37 0 min 0,000 mm 1,0 UV-I 84 W/m 12,5 C 19,2 C 4,8 km/h (1 Bft)
18/10/2018 11:55 19,2 C 64 % 1015,8 hPa 0,0 mm 0,8 km/h (0 Bft) O 275 0 min 0,000 mm 0,9 UV-I 81 W/m 12,2 C 19,2 C 3,2 km/h (1 Bft)
18/10/2018 11:50 19,5 C 63 % 1015,9 hPa 0,0 mm 1,3 km/h (1 Bft) NE 44 0 min 0,000 mm 1,1 UV-I 168 W/m 12,3 C 19,5 C 4,8 km/h (1 Bft)
18/10/2018 11:45 19,6 C 64 % 1015,9 hPa 0,0 mm 0,3 km/h (0 Bft) NE 49 5 min 0,000 mm 1,3 UV-I 417 W/m 12,6 C 19,6 C 1,6 km/h (1 Bft)
18/10/2018 11:40 19,2 C 65 % 1015,8 hPa 0,0 mm 0,3 km/h (0 Bft) SE 139 5 min 0,000 mm 1,3 UV-I 431 W/m 12,5 C 19,2 C 1,6 km/h (1 Bft)
18/10/2018 11:35 18,9 C 65 % 1015,7 hPa 0,0 mm 0,5 km/h (0 Bft) SE 139 5 min 0,000 mm 1,2 UV-I 437 W/m 12,2 C 18,9 C 3,2 km/h (1 Bft)
18/10/2018 11:30 19,2 C 65 % 1015,8 hPa 0,0 mm 0,1 km/h (0 Bft) E-SE 110 5 min 0,000 mm 1,2 UV-I 426 W/m 12,5 C 19,2 C 1,6 km/h (1 Bft)
18/10/2018 11:25 18,8 C 64 % 1015,7 hPa 0,0 mm 0,4 km/h (0 Bft) NE 42 5 min 0,000 mm 1,1 UV-I 380 W/m 11,8 C 18,8 C 3,2 km/h (1 Bft)
18/10/2018 11:20 18,7 C 65 % 1015,7 hPa 0,0 mm 0,7 km/h (0 Bft) S-SE 156 5 min 0,000 mm 1,1 UV-I 385 W/m 12,0 C 18,7 C 4,8 km/h (1 Bft)
18/10/2018 11:15 18,9 C 65 % 1015,7 hPa 0,0 mm 0,4 km/h (0 Bft) S-SE 150 5 min 0,000 mm 1,0 UV-I 333 W/m 12,2 C 18,9 C 3,2 km/h (1 Bft)
18/10/2018 11:10 18,7 C 66 % 1015,8 hPa 0,0 mm 0,5 km/h (0 Bft) NE 55 5 min 0,000 mm 1,0 UV-I 383 W/m 12,2 C 18,7 C 4,8 km/h (1 Bft)
18/10/2018 11:05 18,7 C 64 % 1015,9 hPa 0,0 mm 0,3 km/h (0 Bft) NE 47 5 min 0,178 mm 0,9 UV-I 259 W/m 11,7 C 18,7 C 1,6 km/h (1 Bft)
18/10/2018 11:00 18,6 C 64 % 1015,9 hPa 0,0 mm 0,4 km/h (0 Bft) N 360 5 min 0,000 mm 0,8 UV-I 269 W/m 11,7 C 18,6 C 1,6 km/h (1 Bft)
18/10/2018 10:55 18,6 C 63 % 1015,9 hPa 0,0 mm 0,8 km/h (0 Bft) E-NE 70 5 min 0,000 mm 0,8 UV-I 281 W/m 11,4 C 18,6 C 4,8 km/h (1 Bft)
18/10/2018 10:50 18,6 C 64 % 1015,9 hPa 0,0 mm 0,5 km/h (0 Bft) N-NE 28 5 min 0,000 mm 0,8 UV-I 306 W/m 11,7 C 18,6 C 3,2 km/h (1 Bft)
18/10/2018 10:45 18,6 C 66 % 1015,8 hPa 0,0 mm 0,0 km/h (0 Bft) S 176 5 min 0,000 mm 0,7 UV-I 273 W/m 12,1 C 18,6 C 1,6 km/h (1 Bft)
18/10/2018 10:40 18,3 C 67 % 1015,9 hPa 0,0 mm 0,6 km/h (0 Bft) S 176 5 min 0,000 mm 0,7 UV-I 272 W/m 12,1 C 18,3 C 1,6 km/h (1 Bft)
18/10/2018 10:35 18,6 C 65 % 1015,9 hPa 0,0 mm 0,5 km/h (0 Bft) O 281 5 min 0,000 mm 0,6 UV-I 224 W/m 11,9 C 18,6 C 4,8 km/h (1 Bft)
18/10/2018 10:30 18,7 C 67 % 1015,8 hPa 0,0 mm 0,2 km/h (0 Bft) E-SE 122 5 min 0,000 mm 0,6 UV-I 324 W/m 12,4 C 18,7 C 1,6 km/h (1 Bft)
18/10/2018 10:25 18,3 C 68 % 1015,8 hPa 0,0 mm 0,8 km/h (0 Bft) E-SE 117 5 min 0,000 mm 0,6 UV-I 316 W/m 12,3 C 18,3 C 6,4 km/h (2 Bft)
18/10/2018 10:20 18,1 C 68 % 1015,8 hPa 0,0 mm 0,2 km/h (0 Bft) E-NE 59 5 min 0,000 mm 0,5 UV-I 266 W/m 12,1 C 18,1 C 1,6 km/h (1 Bft)
18/10/2018 10:15 17,9 C 69 % 1015,8 hPa 0,0 mm 0,9 km/h (0 Bft) E-NE 63 5 min 0,000 mm 0,5 UV-I 290 W/m 12,1 C 17,9 C 4,8 km/h (1 Bft)
18/10/2018 10:10 17,7 C 71 % 1015,8 hPa 0,0 mm 1,5 km/h (1 Bft) N-NE 29 5 min 0,000 mm 0,5 UV-I 294 W/m 12,4 C 17,7 C 6,4 km/h (2 Bft)
18/10/2018 10:05 17,2 C 75 % 1015,7 hPa 0,0 mm 0,7 km/h (0 Bft) S 174 5 min 0,051 mm 0,0 UV-I 269 W/m 12,7 C 17,2 C 4,8 km/h (1 Bft)
18/10/2018 10:00 16,5 C 81 % 1015,7 hPa 0,0 mm 1,2 km/h (1 Bft) E 83 5 min 0,000 mm 0,0 UV-I 228 W/m 13,2 C 16,5 C 8,0 km/h (2 Bft)
18/10/2018 09:55 15,7 C 85 % 1015,7 hPa 0,0 mm 0,1 km/h (0 Bft) S-SE 149 0 min 0,000 mm 0,0 UV-I 148 W/m 13,2 C 15,7 C 1,6 km/h (1 Bft)
18/10/2018 09:50 15,3 C 88 % 1015,6 hPa 0,0 mm 0,1 km/h (0 Bft) S-SE 149 0 min 0,000 mm 0,0 UV-I 92 W/m 13,3 C 15,3 C 1,6 km/h (1 Bft)
18/10/2018 09:45 15,1 C 89 % 1015,5 hPa 0,0 mm 0,0 km/h (0 Bft) S-SE 150 0 min 0,000 mm 0,0 UV-I 101 W/m 13,3 C 15,1 C 1,6 km/h (1 Bft)
18/10/2018 09:40 14,8 C 90 % 1015,5 hPa 0,0 mm 0,2 km/h (0 Bft) S-SE 149 0 min 0,000 mm 0,0 UV-I 93 W/m 13,2 C 14,8 C 3,2 km/h (1 Bft)
18/10/2018 09:35 14,6 C 91 % 1015,5 hPa 0,0 mm 0,0 km/h (0 Bft) O 272 0 min 0,000 mm 0,0 UV-I 100 W/m 13,1 C 14,6 C 1,6 km/h (1 Bft)
18/10/2018 09:30 14,4 C 91 % 1015,4 hPa 0,0 mm 0,0 km/h (0 Bft) O 273 0 min 0,000 mm 0,0 UV-I 102 W/m 12,9 C 14,4 C 1,6 km/h (1 Bft)
18/10/2018 09:25 14,2 C 91 % 1015,4 hPa 0,0 mm 0,1 km/h (0 Bft) O 273 0 min 0,000 mm 0,0 UV-I 98 W/m 12,8 C 14,2 C 1,6 km/h (1 Bft)
18/10/2018 09:20 14,1 C 91 % 1015,4 hPa 0,0 mm 0,5 km/h (0 Bft) O 273 0 min 0,000 mm 0,0 UV-I 80 W/m 12,7 C 14,1 C 1,6 km/h (1 Bft)
18/10/2018 09:15 13,9 C 91 % 1015,3 hPa 0,0 mm 0,0 km/h (0 Bft) O 272 0 min 0,000 mm 0,0 UV-I 65 W/m 12,5 C 13,9 C 1,6 km/h (1 Bft)
18/10/2018 09:10 13,8 C 91 % 1015,3 hPa 0,0 mm 0,1 km/h (0 Bft) O 272 0 min 0,000 mm 0,0 UV-I 58 W/m 12,4 C 13,8 C 1,6 km/h (1 Bft)
18/10/2018 09:05 13,6 C 91 % 1015,3 hPa 0,0 mm 0,1 km/h (0 Bft) O 273 0 min 0,000 mm 0,0 UV-I 49 W/m 12,2 C 13,6 C 1,6 km/h (1 Bft)
18/10/2018 09:00 13,5 C 91 % 1015,3 hPa 0,0 mm 0,0 km/h (0 Bft) O 272 0 min 0,000 mm 0,0 UV-I 41 W/m 12,1 C 13,5 C 0,0 km/h (0 Bft)
18/10/2018 08:55 13,4 C 91 % 1015,3 hPa 0,0 mm 0,0 km/h (0 Bft) N 0 0 min 0,000 mm 0,0 UV-I 33 W/m 12,0 C 13,4 C 0,0 km/h (0 Bft)
18/10/2018 08:50 13,4 C 91 % 1015,1 hPa 0,0 mm 0,0 km/h (0 Bft) O 270 0 min 0,000 mm 0,0 UV-I 29 W/m 12,0 C 13,4 C 1,6 km/h (1 Bft)
18/10/2018 08:45 13,3 C 91 % 1015,1 hPa 0,0 mm 0,0 km/h (0 Bft) O 273 0 min 0,000 mm 0,0 UV-I 26 W/m 11,9 C 13,3 C 1,6 km/h (1 Bft)
18/10/2018 08:40 13,3 C 91 % 1015,0 hPa 0,0 mm 0,0 km/h (0 Bft) O 272 0 min 0,000 mm 0,0 UV-I 25 W/m 11,9 C 13,3 C 0,0 km/h (0 Bft)
18/10/2018 08:35 13,3 C 91 % 1015,0 hPa 0,0 mm 0,0 km/h (0 Bft) O 272 0 min 0,000 mm 0,0 UV-I 23 W/m 11,9 C 13,3 C 0,0 km/h (0 Bft)
18/10/2018 08:30 13,3 C 91 % 1015,0 hPa 0,0 mm 0,0 km/h (0 Bft) O 273 0 min 0,000 mm 0,0 UV-I 18 W/m 11,9 C 13,3 C 0,0 km/h (0 Bft)
18/10/2018 08:25 13,3 C 91 % 1015,0 hPa 0,0 mm 0,0 km/h (0 Bft) O 273 0 min 0,000 mm 0,0 UV-I 12 W/m 11,9 C 13,3 C 0,0 km/h (0 Bft)
18/10/2018 08:20 13,2 C 91 % 1015,0 hPa 0,0 mm 0,0 km/h (0 Bft) O 272 0 min 0,000 mm 0,0 UV-I 7 W/m 11,8 C 13,2 C 0,0 km/h (0 Bft)
18/10/2018 08:15 13,3 C 91 % 1015,0 hPa 0,0 mm 0,0 km/h (0 Bft) O 273 0 min 0,000 mm 0,0 UV-I 3 W/m 11,9 C 13,3 C 1,6 km/h (1 Bft)
18/10/2018 08:10 13,3 C 91 % 1015,0 hPa 0,0 mm 0,1 km/h (0 Bft) O 273 0 min 0,000 mm 0,0 UV-I 0 W/m 11,9 C 13,3 C 1,6 km/h (1 Bft)
18/10/2018 08:05 13,3 C 91 % 1015,1 hPa 0,0 mm 0,0 km/h (0 Bft) O 273 0 min 0,000 mm 0,0 UV-I 0 W/m 11,9 C 13,3 C 0,0 km/h (0 Bft)
18/10/2018 08:00 13,4 C 91 % 1015,1 hPa 0,0 mm 0,0 km/h (0 Bft) O 272 0 min 0,000 mm 0,0 UV-I 0 W/m 12,0 C 13,4 C 0,0 km/h (0 Bft)
18/10/2018 07:55 13,5 C 91 % 1015,1 hPa 0,0 mm 0,0 km/h (0 Bft) O 273 0 min 0,000 mm 0,0 UV-I 0 W/m 12,1 C 13,5 C 0,0 km/h (0 Bft)
18/10/2018 07:50 13,5 C 91 % 1015,1 hPa 0,0 mm 0,0 km/h (0 Bft) O 273 0 min 0,000 mm 0,0 UV-I 0 W/m 12,1 C 13,5 C 0,0 km/h (0 Bft)
18/10/2018 07:45 13,6 C 91 % 1015,1 hPa 0,0 mm 0,0 km/h (0 Bft) O 273 0 min 0,000 mm 0,0 UV-I 0 W/m 12,2 C 13,6 C 0,0 km/h (0 Bft)
18/10/2018 07:40 13,6 C 91 % 1015,1 hPa 0,0 mm 0,0 km/h (0 Bft) O 273 0 min 0,000 mm 0,0 UV-I 0 W/m 12,2 C 13,6 C 0,0 km/h (0 Bft)
18/10/2018 07:35 13,6 C 91 % 1015,0 hPa 0,0 mm 0,0 km/h (0 Bft) O 272 0 min 0,000 mm 0,0 UV-I 0 W/m 12,2 C 13,6 C 0,0 km/h (0 Bft)
18/10/2018 07:30 13,6 C 91 % 1015,0 hPa 0,0 mm 0,0 km/h (0 Bft) O 273 0 min 0,000 mm 0,0 UV-I 0 W/m 12,2 C 13,6 C 0,0 km/h (0 Bft)
18/10/2018 07:25 13,6 C 91 % 1014,9 hPa 0,0 mm 0,0 km/h (0 Bft) O 272 0 min 0,000 mm 0,0 UV-I 0 W/m 12,2 C 13,6 C 0,0 km/h (0 Bft)
18/10/2018 07:20 13,6 C 91 % 1015,1 hPa 0,0 mm 0,0 km/h (0 Bft) O 273 0 min 0,000 mm 0,0 UV-I 0 W/m 12,2 C 13,6 C 0,0 km/h (0 Bft)
18/10/2018 07:15 13,6 C 91 % 1015,0 hPa 0,0 mm 0,0 km/h (0 Bft) O 273 0 min 0,000 mm 0,0 UV-I 0 W/m 12,2 C 13,6 C 0,0 km/h (0 Bft)
18/10/2018 07:10 13,7 C 91 % 1015,0 hPa 0,0 mm 0,0 km/h (0 Bft) O 273 0 min 0,000 mm 0,0 UV-I 0 W/m 12,3 C 13,7 C 0,0 km/h (0 Bft)
18/10/2018 07:05 13,6 C 91 % 1014,9 hPa 0,0 mm 0,0 km/h (0 Bft) O 272 0 min 0,000 mm 0,0 UV-I 0 W/m 12,2 C 13,6 C 0,0 km/h (0 Bft)
18/10/2018 07:00 13,6 C 91 % 1015,0 hPa 0,0 mm 0,0 km/h (0 Bft) O 272 0 min 0,000 mm 0,0 UV-I 0 W/m 12,2 C 13,6 C 0,0 km/h (0 Bft)
18/10/2018 06:55 13,6 C 91 % 1014,9 hPa 0,0 mm 0,0 km/h (0 Bft) O 273 0 min 0,000 mm 0,0 UV-I 0 W/m 12,2 C 13,6 C 0,0 km/h (0 Bft)
18/10/2018 06:50 13,7 C 91 % 1014,9 hPa 0,0 mm 0,0 km/h (0 Bft) O 273 0 min 0,000 mm 0,0 UV-I 0 W/m 12,3 C 13,7 C 0,0 km/h (0 Bft)
18/10/2018 06:45 13,7 C 91 % 1015,0 hPa 0,0 mm 0,0 km/h (0 Bft) O 272 0 min 0,000 mm 0,0 UV-I 0 W/m 12,3 C 13,7 C 0,0 km/h (0 Bft)
18/10/2018 06:40 13,7 C 91 % 1014,9 hPa 0,0 mm 0,0 km/h (0 Bft) O 273 0 min 0,000 mm 0,0 UV-I 0 W/m 12,3 C 13,7 C 1,6 km/h (1 Bft)
18/10/2018 06:35 13,7 C 91 % 1015,0 hPa 0,0 mm 0,0 km/h (0 Bft) O 273 0 min 0,000 mm 0,0 UV-I 0 W/m 12,3 C 13,7 C 1,6 km/h (1 Bft)
18/10/2018 06:30 13,7 C 91 % 1014,9 hPa 0,0 mm 0,0 km/h (0 Bft) O 272 0 min 0,000 mm 0,0 UV-I 0 W/m 12,3 C 13,7 C 0,0 km/h (0 Bft)
18/10/2018 06:25 13,7 C 91 % 1015,0 hPa 0,0 mm 0,0 km/h (0 Bft) O 272 0 min 0,000 mm 0,0 UV-I 0 W/m 12,3 C 13,7 C 0,0 km/h (0 Bft)
18/10/2018 06:20 13,7 C 91 % 1014,9 hPa 0,0 mm 0,1 km/h (0 Bft) O 273 0 min 0,000 mm 0,0 UV-I 0 W/m 12,3 C 13,7 C 1,6 km/h (1 Bft)
18/10/2018 06:15 13,7 C 91 % 1014,7 hPa 0,0 mm 0,6 km/h (0 Bft) O 273 0 min 0,000 mm 0,0 UV-I 0 W/m 12,3 C 13,7 C 1,6 km/h (1 Bft)
18/10/2018 06:10 13,7 C 91 % 1014,8 hPa 0,0 mm 0,0 km/h (0 Bft) O 272 0 min 0,000 mm 0,0 UV-I 0 W/m 12,3 C 13,7 C 0,0 km/h (0 Bft)
18/10/2018 06:05 13,8 C 91 % 1014,7 hPa 0,0 mm 0,0 km/h (0 Bft) O 273 0 min 0,000 mm 0,0 UV-I 0 W/m 12,4 C 13,8 C 0,0 km/h (0 Bft)
18/10/2018 06:00 13,8 C 90 % 1014,7 hPa 0,0 mm 0,0 km/h (0 Bft) O 273 0 min 0,000 mm 0,0 UV-I 0 W/m 12,2 C 13,8 C 0,0 km/h (0 Bft)
18/10/2018 05:55 13,8 C 91 % 1014,7 hPa 0,0 mm 0,0 km/h (0 Bft) O 273 0 min 0,000 mm 0,0 UV-I 0 W/m 12,4 C 13,8 C 0,0 km/h (0 Bft)
18/10/2018 05:50 13,8 C 91 % 1014,7 hPa 0,0 mm 0,0 km/h (0 Bft) O 272 0 min 0,000 mm 0,0 UV-I 0 W/m 12,4 C 13,8 C 0,0 km/h (0 Bft)
18/10/2018 05:45 13,7 C 90 % 1014,5 hPa 0,0 mm 0,0 km/h (0 Bft) O 272 0 min 0,000 mm 0,0 UV-I 0 W/m 12,1 C 13,7 C 0,0 km/h (0 Bft)
18/10/2018 05:40 13,8 C 90 % 1014,6 hPa 0,0 mm 0,0 km/h (0 Bft) O 273 0 min 0,000 mm 0,0 UV-I 0 W/m 12,2 C 13,8 C 0,0 km/h (0 Bft)
18/10/2018 05:35 13,8 C 90 % 1014,6 hPa 0,0 mm 0,0 km/h (0 Bft) O 273 0 min 0,000 mm 0,0 UV-I 0 W/m 12,2 C 13,8 C 0,0 km/h (0 Bft)
18/10/2018 05:30 13,8 C 90 % 1014,6 hPa 0,0 mm 0,0 km/h (0 Bft) O 272 0 min 0,000 mm 0,0 UV-I 0 W/m 12,2 C 13,8 C 0,0 km/h (0 Bft)
18/10/2018 05:25 13,8 C 90 % 1014,6 hPa 0,0 mm 0,0 km/h (0 Bft) O 273 0 min 0,000 mm 0,0 UV-I 0 W/m 12,2 C 13,8 C 0,0 km/h (0 Bft)
18/10/2018 05:20 13,7 C 90 % 1014,6 hPa 0,0 mm 0,2 km/h (0 Bft) O 273 0 min 0,000 mm 0,0 UV-I 0 W/m 12,1 C 13,7 C 1,6 km/h (1 Bft)
18/10/2018 05:15 13,7 C 90 % 1014,6 hPa 0,0 mm 0,1 km/h (0 Bft) O 272 0 min 0,000 mm 0,0 UV-I 0 W/m 12,1 C 13,7 C 1,6 km/h (1 Bft)
18/10/2018 05:10 13,7 C 90 % 1014,7 hPa 0,0 mm 0,0 km/h (0 Bft) O 272 0 min 0,000 mm 0,0 UV-I 0 W/m 12,1 C 13,7 C 0,0 km/h (0 Bft)
18/10/2018 05:05 13,8 C 90 % 1014,7 hPa 0,0 mm 0,0 km/h (0 Bft) O 273 0 min 0,000 mm 0,0 UV-I 0 W/m 12,2 C 13,8 C 0,0 km/h (0 Bft)
18/10/2018 05:00 13,8 C 90 % 1014,8 hPa 0,0 mm 0,0 km/h (0 Bft) O 273 0 min 0,000 mm 0,0 UV-I 0 W/m 12,2 C 13,8 C 0,0 km/h (0 Bft)
18/10/2018 04:55 13,8 C 90 % 1014,7 hPa 0,0 mm 0,0 km/h (0 Bft) O 272 0 min 0,000 mm 0,0 UV-I 0 W/m 12,2 C 13,8 C 1,6 km/h (1 Bft)
18/10/2018 04:50 13,8 C 90 % 1014,7 hPa 0,0 mm 0,0 km/h (0 Bft) O 273 0 min 0,000 mm 0,0 UV-I 0 W/m 12,2 C 13,8 C 0,0 km/h (0 Bft)
18/10/2018 04:45 13,8 C 90 % 1014,7 hPa 0,0 mm 0,0 km/h (0 Bft) O 273 0 min 0,000 mm 0,0 UV-I 0 W/m 12,2 C 13,8 C 0,0 km/h (0 Bft)
18/10/2018 04:40 13,7 C 90 % 1014,7 hPa 0,0 mm 0,0 km/h (0 Bft) O 273 0 min 0,000 mm 0,0 UV-I 0 W/m 12,1 C 13,7 C 0,0 km/h (0 Bft)
18/10/2018 04:35 13,7 C 90 % 1014,7 hPa 0,0 mm 0,0 km/h (0 Bft) O 272 0 min 0,000 mm 0,0 UV-I 0 W/m 12,1 C 13,7 C 0,0 km/h (0 Bft)
18/10/2018 04:30 13,6 C 90 % 1014,7 hPa 0,0 mm 0,0 km/h (0 Bft) O 273 0 min 0,000 mm 0,0 UV-I 0 W/m 12,0 C 13,6 C 0,0 km/h (0 Bft)
18/10/2018 04:25 13,6 C 90 % 1014,6 hPa 0,0 mm 0,0 km/h (0 Bft) O 273 0 min 0,000 mm 0,0 UV-I 0 W/m 12,0 C 13,6 C 0,0 km/h (0 Bft)
18/10/2018 04:20 13,6 C 90 % 1014,6 hPa 0,0 mm 0,0 km/h (0 Bft) O 273 0 min 0,000 mm 0,0 UV-I 0 W/m 12,0 C 13,6 C 0,0 km/h (0 Bft)
18/10/2018 04:15 13,7 C 90 % 1014,7 hPa 0,0 mm 0,0 km/h (0 Bft) O 272 0 min 0,000 mm 0,0 UV-I 0 W/m 12,1 C 13,7 C 1,6 km/h (1 Bft)
18/10/2018 04:10 13,7 C 90 % 1014,7 hPa 0,0 mm 0,1 km/h (0 Bft) O 273 0 min 0,000 mm 0,0 UV-I 0 W/m 12,1 C 13,7 C 1,6 km/h (1 Bft)
18/10/2018 04:05 13,7 C 90 % 1014,7 hPa 0,0 mm 0,0 km/h (0 Bft) O 273 0 min 0,000 mm 0,0 UV-I 0 W/m 12,1 C 13,7 C 0,0 km/h (0 Bft)
18/10/2018 04:00 13,7 C 90 % 1014,7 hPa 0,0 mm 0,0 km/h (0 Bft) O 272 0 min 0,000 mm 0,0 UV-I 0 W/m 12,1 C 13,7 C 0,0 km/h (0 Bft)
18/10/2018 03:55 13,6 C 90 % 1015,0 hPa 0,0 mm 0,0 km/h (0 Bft) O 273 0 min 0,000 mm 0,0 UV-I 0 W/m 12,0 C 13,6 C 0,0 km/h (0 Bft)
18/10/2018 03:50 13,6 C 90 % 1015,0 hPa 0,0 mm 0,2 km/h (0 Bft) O 273 0 min 0,000 mm 0,0 UV-I 0 W/m 12,0 C 13,6 C 1,6 km/h (1 Bft)
18/10/2018 03:45 13,6 C 90 % 1014,9 hPa 0,0 mm 0,0 km/h (0 Bft) O 273 0 min 0,000 mm 0,0 UV-I 0 W/m 12,0 C 13,6 C 1,6 km/h (1 Bft)
18/10/2018 03:40 13,5 C 90 % 1015,0 hPa 0,0 mm 0,0 km/h (0 Bft) O 272 0 min 0,000 mm 0,0 UV-I 0 W/m 11,9 C 13,5 C 0,0 km/h (0 Bft)
18/10/2018 03:35 13,4 C 90 % 1015,0 hPa 0,0 mm 0,0 km/h (0 Bft) O 272 0 min 0,000 mm 0,0 UV-I 0 W/m 11,8 C 13,4 C 0,0 km/h (0 Bft)
18/10/2018 03:30 13,5 C 90 % 1015,1 hPa 0,0 mm 0,0 km/h (0 Bft) O 273 0 min 0,000 mm 0,0 UV-I 0 W/m 11,9 C 13,5 C 0,0 km/h (0 Bft)
18/10/2018 03:25 13,6 C 90 % 1015,1 hPa 0,0 mm 0,0 km/h (0 Bft) O 273 0 min 0,000 mm 0,0 UV-I 0 W/m 12,0 C 13,6 C 0,0 km/h (0 Bft)
18/10/2018 03:20 13,7 C 90 % 1015,2 hPa 0,0 mm 0,0 km/h (0 Bft) O 272 0 min 0,000 mm 0,0 UV-I 0 W/m 12,1 C 13,7 C 0,0 km/h (0 Bft)
18/10/2018 03:15 13,7 C 90 % 1015,3 hPa 0,0 mm 0,0 km/h (0 Bft) O 273 0 min 0,000 mm 0,0 UV-I 0 W/m 12,1 C 13,7 C 0,0 km/h (0 Bft)
18/10/2018 03:10 13,7 C 90 % 1015,4 hPa 0,0 mm 0,0 km/h (0 Bft) O 273 0 min 0,000 mm 0,0 UV-I 0 W/m 12,1 C 13,7 C 0,0 km/h (0 Bft)
18/10/2018 03:05 13,7 C 90 % 1015,4 hPa 0,0 mm 0,0 km/h (0 Bft) O 272 0 min 0,000 mm 0,0 UV-I 0 W/m 12,1 C 13,7 C 0,0 km/h (0 Bft)
18/10/2018 03:00 13,6 C 90 % 1015,4 hPa 0,0 mm 0,0 km/h (0 Bft) O 272 0 min 0,000 mm 0,0 UV-I 0 W/m 12,0 C 13,6 C 0,0 km/h (0 Bft)
18/10/2018 02:55 13,6 C 90 % 1015,4 hPa 0,0 mm 0,0 km/h (0 Bft) O 273 0 min 0,000 mm 0,0 UV-I 0 W/m 12,0 C 13,6 C 0,0 km/h (0 Bft)
18/10/2018 02:50 13,6 C 90 % 1015,4 hPa 0,0 mm 0,0 km/h (0 Bft) O 273 0 min 0,000 mm 0,0 UV-I 0 W/m 12,0 C 13,6 C 0,0 km/h (0 Bft)
18/10/2018 02:45 13,7 C 90 % 1015,4 hPa 0,0 mm 0,0 km/h (0 Bft) O 272 0 min 0,000 mm 0,0 UV-I 0 W/m 12,1 C 13,7 C 0,0 km/h (0 Bft)
18/10/2018 02:40 13,7 C 90 % 1015,4 hPa 0,0 mm 0,0 km/h (0 Bft) O 273 0 min 0,000 mm 0,0 UV-I 0 W/m 12,1 C 13,7 C 0,0 km/h (0 Bft)
18/10/2018 02:35 13,7 C 90 % 1015,4 hPa 0,0 mm 0,0 km/h (0 Bft) O 273 0 min 0,000 mm 0,0 UV-I 0 W/m 12,1 C 13,7 C 0,0 km/h (0 Bft)
18/10/2018 02:30 13,6 C 90 % 1015,4 hPa 0,0 mm 0,0 km/h (0 Bft) O 273 0 min 0,000 mm 0,0 UV-I 0 W/m 12,0 C 13,6 C 1,6 km/h (1 Bft)
18/10/2018 02:25 13,7 C 90 % 1015,5 hPa 0,0 mm 0,0 km/h (0 Bft) O 272 0 min 0,000 mm 0,0 UV-I 0 W/m 12,1 C 13,7 C 1,6 km/h (1 Bft)
18/10/2018 02:20 13,7 C 90 % 1015,5 hPa 0,0 mm 0,0 km/h (0 Bft) O 272 0 min 0,000 mm 0,0 UV-I 0 W/m 12,1 C 13,7 C 0,0 km/h (0 Bft)
18/10/2018 02:15 13,7 C 90 % 1015,5 hPa 0,0 mm 0,0 km/h (0 Bft) O 273 0 min 0,000 mm 0,0 UV-I 0 W/m 12,1 C 13,7 C 0,0 km/h (0 Bft)
18/10/2018 02:10 13,6 C 90 % 1015,5 hPa 0,0 mm 0,1 km/h (0 Bft) O 272 0 min 0,000 mm 0,0 UV-I 0 W/m 12,0 C 13,6 C 1,6 km/h (1 Bft)
18/10/2018 02:05 13,5 C 90 % 1015,5 hPa 0,0 mm 0,0 km/h (0 Bft) O 272 0 min 0,000 mm 0,0 UV-I 0 W/m 11,9 C 13,5 C 0,0 km/h (0 Bft)
18/10/2018 02:00 13,5 C 90 % 1015,5 hPa 0,0 mm 0,0 km/h (0 Bft) O 273 0 min 0,000 mm 0,0 UV-I 0 W/m 11,9 C 13,5 C 0,0 km/h (0 Bft)
18/10/2018 01:55 13,6 C 90 % 1015,6 hPa 0,0 mm 0,0 km/h (0 Bft) O 273 0 min 0,000 mm 0,0 UV-I 0 W/m 12,0 C 13,6 C 0,0 km/h (0 Bft)
18/10/2018 01:50 13,6 C 90 % 1015,5 hPa 0,0 mm 0,0 km/h (0 Bft) O 272 0 min 0,000 mm 0,0 UV-I 0 W/m 12,0 C 13,6 C 0,0 km/h (0 Bft)
18/10/2018 01:45 13,6 C 90 % 1015,6 hPa 0,0 mm 0,0 km/h (0 Bft) O 272 0 min 0,000 mm 0,0 UV-I 0 W/m 12,0 C 13,6 C 1,6 km/h (1 Bft)
18/10/2018 01:40 13,7 C 90 % 1015,5 hPa 0,0 mm 0,0 km/h (0 Bft) O 273 0 min 0,000 mm 0,0 UV-I 0 W/m 12,1 C 13,7 C 0,0 km/h (0 Bft)
18/10/2018 01:35 13,7 C 90 % 1015,5 hPa 0,0 mm 0,0 km/h (0 Bft) O 273 0 min 0,000 mm 0,0 UV-I 0 W/m 12,1 C 13,7 C 0,0 km/h (0 Bft)
18/10/2018 01:30 13,7 C 90 % 1015,5 hPa 0,0 mm 0,0 km/h (0 Bft) O 272 0 min 0,000 mm 0,0 UV-I 0 W/m 12,1 C 13,7 C 0,0 km/h (0 Bft)
18/10/2018 01:25 13,7 C 90 % 1015,6 hPa 0,0 mm 0,0 km/h (0 Bft) O 273 0 min 0,000 mm 0,0 UV-I 0 W/m 12,1 C 13,7 C 0,0 km/h (0 Bft)
18/10/2018 01:20 13,5 C 90 % 1015,6 hPa 0,0 mm 0,0 km/h (0 Bft) O 273 0 min 0,000 mm 0,0 UV-I 0 W/m 11,9 C 13,5 C 0,0 km/h (0 Bft)
18/10/2018 01:15 13,4 C 90 % 1015,6 hPa 0,0 mm 0,0 km/h (0 Bft) O 273 0 min 0,000 mm 0,0 UV-I 0 W/m 11,8 C 13,4 C 1,6 km/h (1 Bft)
18/10/2018 01:10 13,6 C 90 % 1015,6 hPa 0,0 mm 0,1 km/h (0 Bft) O 272 0 min 0,000 mm 0,0 UV-I 0 W/m 12,0 C 13,6 C 1,6 km/h (1 Bft)
18/10/2018 01:05 13,5 C 89 % 1015,5 hPa 0,0 mm 0,0 km/h (0 Bft) O 273 0 min 0,000 mm 0,0 UV-I 0 W/m 11,7 C 13,5 C 1,6 km/h (1 Bft)
18/10/2018 01:00 13,5 C 89 % 1015,6 hPa 0,0 mm 0,1 km/h (0 Bft) O 273 0 min 0,000 mm 0,0 UV-I 0 W/m 11,7 C 13,5 C 1,6 km/h (1 Bft)
18/10/2018 00:55 13,6 C 89 % 1015,6 hPa 0,0 mm 0,1 km/h (0 Bft) O 273 0 min 0,000 mm 0,0 UV-I 0 W/m 11,8 C 13,6 C 1,6 km/h (1 Bft)
18/10/2018 00:50 13,7 C 88 % 1015,6 hPa 0,0 mm 0,0 km/h (0 Bft) O 272 0 min 0,000 mm 0,0 UV-I 0 W/m 11,7 C 13,7 C 0,0 km/h (0 Bft)
18/10/2018 00:45 13,8 C 88 % 1015,6 hPa 0,0 mm 0,0 km/h (0 Bft) O 273 0 min 0,000 mm 0,0 UV-I 0 W/m 11,8 C 13,8 C 0,0 km/h (0 Bft)
18/10/2018 00:40 13,8 C 88 % 1015,6 hPa 0,0 mm 0,0 km/h (0 Bft) O 273 0 min 0,000 mm 0,0 UV-I 0 W/m 11,8 C 13,8 C 0,0 km/h (0 Bft)
18/10/2018 00:35 14,1 C 88 % 1015,5 hPa 0,0 mm 0,0 km/h (0 Bft) O 272 0 min 0,000 mm 0,0 UV-I 0 W/m 12,1 C 14,1 C 0,0 km/h (0 Bft)
18/10/2018 00:30 14,3 C 88 % 1015,6 hPa 0,0 mm 0,0 km/h (0 Bft) O 273 0 min 0,000 mm 0,0 UV-I 0 W/m 12,3 C 14,3 C 0,0 km/h (0 Bft)
18/10/2018 00:25 14,3 C 88 % 1015,6 hPa 0,0 mm 0,0 km/h (0 Bft) O 273 0 min 0,000 mm 0,0 UV-I 0 W/m 12,3 C 14,3 C 0,0 km/h (0 Bft)
18/10/2018 00:20 14,3 C 88 % 1015,7 hPa 0,0 mm 0,0 km/h (0 Bft) O 273 0 min 0,000 mm 0,0 UV-I 0 W/m 12,3 C 14,3 C 0,0 km/h (0 Bft)
18/10/2018 00:15 14,4 C 88 % 1015,7 hPa 0,0 mm 0,0 km/h (0 Bft) O 272 0 min 0,000 mm 0,0 UV-I 0 W/m 12,4 C 14,4 C 0,0 km/h (0 Bft)
18/10/2018 00:10 14,6 C 87 % 1015,7 hPa 0,0 mm 0,0 km/h (0 Bft) O 272 0 min 0,000 mm 0,0 UV-I 0 W/m 12,5 C 14,6 C 0,0 km/h (0 Bft)
18/10/2018 00:05 14,7 C 87 % 1015,7 hPa 0,0 mm 0,0 km/h (0 Bft) O 273 0 min 0,000 mm 0,0 UV-I 0 W/m 12,6 C 14,7 C 0,0 km/h (0 Bft)
18/10/2018 00:00 15,1 C 86 % 1015,8 hPa 0,0 mm 0,0 km/h (0 Bft) O 273 0 min 0,000 mm 0,0 UV-I 0 W/m 12,8 C 15,1 C 0,0 km/h (0 Bft)
_ Min-Heure 23:50 17:40 17:40 - 23:50 - - - - - - 23:50 23:50 23:50
Minimum _ 13,1 C 45 % 1013,9 hPa - 0,0 km/h (0 Bft) - - - - - - 9,7 C 13,1 C 0,0 km/h (0 Bft)
_ Max-Heure 16:35 09:35 23:00 23:50 15:55 - - 17:50 16:05 14:05 15:10 15:00 16:35 15:55
Maximum _ 24,1 C 91 % 1016,0 hPa 0,0 mm 4,0 km/h
O (1 Bft)
- - 5 min 0,305 mm 2,1 UV-I 578 W/m 13,6 C 24,1 C 9,7 km/h
SO (2 Bft)
Moyenne _ 17,1 C 74 % 1015,1 hPa #0,0 mm 0,4 km/h (0 Bft) O - #5:25 h #1,626 mm 1,2 UV-I 106 W/m 12,1 C 17,1 C 1,8 km/h (1 Bft)